Location: Lucerne Valley
(34.4439°N, 116.9669°E)
Time: 08:13:06
(UTC-07:00)

Envisat - Pass Details

Date: 14 October 2017
Orbit: 764 x 766 km, 98.2° (Epoch: 23 October)

Event Time Altitude Azimuth Distance (km) Brightness Sun altitude
Exits shadow 05:38:30 19° 326° (NNW) 1,744 5.2 -37.4°
Drops below altitude 10° 05:40:02 10° 334° (NNW) 2,304 5.9 -37.7°
Sets 05:42:27 0° 341° (NNW) 3,234 6.7 -38.2°
